This is the latest recevied weather packets stored in our database for station/object KA1BMF-13. If no packets are shown the sender has not sent any weather packets the latest 10 day(s).
| Time | Temp. | Humidity | Pressure | Rain* | Wind** | Luminosity | Snow |
|---|---|---|---|---|---|---|---|
| 1788005118 | 16.67° C | 84% | 1022.4 hPa | 0 mm | - | 36 W/m² | - |
| 1788004518 | 15.56° C | 88% | 1022.3 hPa | 0 mm | - | 34 W/m² | - |
| 1788003918 | 15° C | 92% | 1022.3 hPa | 0 mm | - | 33 W/m² | - |
| 1788003318 | 14.44° C | 94% | 1022.3 hPa | 0 mm | - | 31 W/m² | - |
| 1788002719 | 13.89° C | 95% | 1022.2 hPa | 0 mm | - | 27 W/m² | - |
| 1788002119 | 13.89° C | 94% | 1022.2 hPa | 0 mm | - | 25 W/m² | - |
| 1788001519 | 13.89° C | 94% | 1022.2 hPa | 0 mm | - | 22 W/m² | - |
| 1788000916 | 13.89° C | 94% | 1022.1 hPa | 0 mm | - | 18 W/m² | - |
| 1788000319 | 13.89° C | 94% | 1022 hPa | 0 mm | - | 13 W/m² | - |
| 1787999720 | 13.89° C | 93% | 1021.9 hPa | 0 mm | - | 7 W/m² | - |
| 1787999120 | 13.89° C | 93% | 1021.8 hPa | 0 mm | - | 4 W/m² | - |
| 1787998517 | 14.44° C | 92% | 1021.7 hPa | 0 mm | - | 2 W/m² | - |
| 1787997917 | 14.44° C | 91% | 1021.5 hPa | 0 mm | - | 0 W/m² | - |
| 1787997317 | 14.44° C | 90% | 1021.5 hPa | 0 mm | - | 0 W/m² | - |
| 1787996721 | 15° C | 90% | 1021.5 hPa | 0 mm | - | 0 W/m² | - |
| 1787996117 | 15° C | 89% | 1021.3 hPa | 0 mm | - | 0 W/m² | - |
| 1787995518 | 15° C | 89% | 1021.1 hPa | 0 mm | - | 0 W/m² | - |
| 1787994918 | 15.56° C | 88% | 1021 hPa | 0 mm | - | 0 W/m² | - |
| 1787994318 | 15.56° C | 88% | 1020.9 hPa | 0 mm | - | 0 W/m² | - |
| 1787993716 | 15.56° C | 87% | 1020.8 hPa | 0 mm | - | 0 W/m² | - |
| 1787993119 | 15.56° C | 87% | 1020.7 hPa | 0 mm | - | 0 W/m² | - |
| 1787992519 | 15.56° C | 87% | 1020.6 hPa | 0 mm | - | 0 W/m² | - |
| 1787991919 | 15.56° C | 87% | 1020.5 hPa | 0 mm | - | 0 W/m² | - |
| 1787991316 | 15.56° C | 87% | 1020.4 hPa | 0 mm | - | 0 W/m² | - |
| 1787990716 | 15.56° C | 86% | 1020.3 hPa | 0 mm | - | 0 W/m² | - |
* Rain latest hour (hover to see other rain measurements)
** Current wind speed in m/s (hover to see current wind gust speed)